Theta_e
309 308 311 311 310 295 303 305 298 301 308 306 302 306 305 305 305 301 310 307 312 318 317 322 326 327 327 329 330 332 334 337 338 338 338 336 341 341 344 346 344 346 345 346 348 348 343 341 340 339 344 348 351 354 352 354 354 355 357 358 357 357 355
307 310 310 310 311 308 302 299 301 305 308 308 306 297 297 298 297 300 308 304 306 307 302 320 320 321 324 326 327 328 331 333 332 334 338 340 341 342 347 346 349 351 353 349 348 348 348 351 342 340 345 348 352 356 353 354 356 354 357 359 358 358 355
306 310 309 306 310 312 303 301 307 299 295 293 301 300 290 293 296 299 304 307 306 309 306 314 317 319 320 323 325 325 326 329 330 332 338 339 340 340 342 345 347 350 350 346 343 348 352 355 348 348 348 351 352 356 356 356 356 356 357 359 360 359 358
304 306 300 293 298 306 308 307 303 306 301 298 298 297 300 300 297 298 297 303 301 309 313 318 318 320 320 321 322 323 324 326 328 329 332 335 336 339 341 344 345 346 349 349 349 346 350 350 349 352 354 348 348 348 353 357 358 358 357 358 359 358 358
303 295 299 296 299 298 299 299 298 301 302 305 300 301 297 298 298 298 297 295 303 310 318 318 320 320 320 321 321 322 323 324 326 328 330 334 338 340 341 341 344 344 348 351 351 350 348 349 350 351 353 351 349 351 355 359 358 358 359 357 358 359 358
294 297 302 303 303 302 299 298 297 298 297 295 292 292 302 300 302 295 298 296 305 315 324 320 320 319 321 322 322 322 322 323 323 326 329 332 334 339 338 341 343 345 344 348 353 352 351 350 352 352 351 348 350 352 354 354 351 349 351 350 348 351 355
296 301 304 307 308 306 305 306 299 302 300 301 297 287 297 306 308 309 305 300 303 318 321 322 322 320 322 322 322 321 321 321 323 326 328 330 333 335 336 337 340 342 342 346 349 351 350 352 353 352 350 352 352 353 352 354 352 351 352 353 354 352 347
301 304 306 306 307 306 302 303 304 303 299 301 297 297 302 303 306 302 300 298 304 315 323 323 321 320 322 322 322 321 321 321 322 323 325 327 328 331 332 334 336 338 340 342 343 346 344 346 347 349 351 352 352 351 352 352 352 354 357 355 356 353 354
293 295 297 298 303 303 299 298 302 304 303 304 303 304 307 302 306 305 299 294 302 314 322 326 323 321 320 320 321 322 319 320 322 323 323 323 325 327 329 330 333 334 335 337 338 341 344 345 347 348 350 349 348 350 353 351 353 355 354 353 354 353 351
285 285 287 289 292 295 298 302 302 303 303 302 299 295 300 292 302 306 300 300 308 316 322 319 319 320 317 318 319 321 321 320 321 322 322 323 324 324 326 329 330 333 335 336 338 338 339 341 342 344 347 349 350 351 353 355 351 352 355 358 357 353 351
291 294 297 302 305 302 295 299 301 302 303 303 302 301 299 294 301 303 304 306 307 310 313 316 319 316 315 315 317 317 318 320 321 322 322 323 323 324 325 327 328 328 329 333 337 339 339 341 341 342 344 346 349 351 352 353 355 354 356 355 354 355 354
299 299 298 300 302 298 299 299 300 301 301 301 300 297 300 308 303 294 306 309 307 307 311 314 313 314 315 316 316 317 317 319 320 321 322 324 323 324 325 325 326 326 327 328 330 332 335 339 342 342 343 344 345 348 349 352 353 353 352 351 352 354 352
301 300 300 301 300 299 299 300 299 299 300 301 298 300 308 308 301 299 307 309 307 308 311 312 313 314 314 315 317 318 319 320 320 319 319 319 322 323 323 324 325 325 325 326 328 329 330 333 337 340 341 342 344 345 347 349 351 353 356 352 351 351 350
300 300 300 300 299 299 299 299 299 299 299 299 302 305 310 311 307 309 310 309 308 311 311 313 314 315 315 315 317 319 319 319 319 319 318 319 320 321 321 322 323 325 326 326 326 328 328 328 331 336 339 339 341 343 344 347 349 351 353 352 351 350 352
296 298 300 300 299 298 296 298 299 299 298 298 302 310 312 313 310 311 310 308 306 312 314 314 316 316 317 316 315 314 316 318 319 318 318 318 319 320 321 321 322 324 325 326 326 326 328 328 329 333 337 339 341 343 344 345 349 351 350 348 349 352 352
293 297 298 299 299 298 297 295 297 298 297 296 299 300 312 310 307 309 308 304 305 311 315 315 315 315 315 314 314 314 315 316 317 316 317 317 318 319 320 321 321 322 323 324 325 325 326 328 327 328 332 334 338 342 342 343 345 347 346 345 344 345 347
291 296 297 296 297 294 291 294 295 300 299 300 299 310 313 313 312 307 303 303 310 313 315 313 313 314 313 313 313 312 313 315 316 316 316 316 317 318 319 320 321 321 322 323 324 326 326 326 327 327 329 331 331 336 342 341 342 341 341 342 342 343 344
291 295 296 298 290 283 287 299 303 301 298 299 298 304 308 313 313 309 311 311 313 314 313 312 312 313 313 314 316 318 316 315 315 316 317 317 317 318 319 319 319 319 321 323 325 325 324 325 329 330 331 330 331 333 336 340 338 338 338 338 340 340 341
291 294 296 288 282 288 301 302 303 306 303 300 305 308 309 311 313 313 311 312 312 313 314 314 315 315 316 317 316 316 318 318 315 315 316 316 317 318 317 317 318 318 319 321 323 325 324 325 325 329 330 331 331 330 331 333 335 335 336 336 336 337 337
296 292 289 279 284 298 302 301 303 307 308 308 307 306 310 312 312 312 310 311 313 314 314 315 316 316 316 316 317 317 317 315 316 314 314 315 317 317 318 318 318 317 318 321 321 324 328 323 323 326 330 332 331 330 330 332 333 332 333 334 335 335 335
290 293 289 289 299 298 299 300 302 301 298 300 300 297 303 312 313 313 311 311 313 313 315 316 316 317 316 312 313 317 317 317 316 314 313 313 314 317 319 319 318 320 319 320 323 327 323 321 321 323 329 329 329 330 329 330 332 331 331 330 331 334 335
295 291 289 290 287 287 293 304 305 305 305 304 303 302 301 311 312 314 312 310 312 313 315 315 315 315 310 307 308 313 314 314 315 314 314 313 313 314 315 315 316 318 320 320 322 322 319 320 320 326 328 328 327 327 328 328 331 331 331 330 331 332 333
294 291 287 288 284 291 299 301 304 305 305 303 304 296 294 304 310 312 312 310 311 312 313 312 313 310 305 305 308 312 314 313 313 312 312 313 313 314 314 314 314 318 321 322 321 322 320 319 321 323 323 324 324 324 327 326 330 329 330 331 331 331 332
294 293 288 287 296 293 302 303 303 302 303 304 297 285 287 303 308 312 312 310 310 309 311 310 310 307 304 305 309 313 312 312 313 313 312 312 313 313 314 315 317 320 321 318 317 318 318 319 321 322 323 323 326 325 324 326 328 327 329 331 331 332 332
291 295 291 294 295 303 307 304 304 301 304 300 287 282 294 308 306 309 309 309 308 308 308 308 303 305 307 307 309 312 312 311 311 313 314 314 314 313 314 319 323 316 316 318 316 316 317 319 320 322 323 324 323 324 324 322 325 324 329 332 332 333 332
289 290 287 290 296 304 305 304 305 305 302 288 287 300 312 308 307 309 309 308 307 308 308 307 306 307 310 312 310 310 310 310 311 312 313 313 314 314 322 324 320 316 316 316 315 316 316 318 321 321 321 323 323 324 322 322 323 325 329 331 332 331 332
293 293 290 288 283 300 310 305 304 308 297 299 307 309 309 311 309 308 308 308 307 308 306 308 307 307 307 308 308 308 309 311 311 312 312 311 312 313 313 313 317 317 314 314 314 315 317 319 320 320 320 321 322 323 321 323 324 326 326 328 329 329 331
291 290 288 288 297 301 309 307 298 306 307 310 311 307 305 309 309 308 307 307 308 308 307 306 305 305 306 308 308 309 309 311 311 312 312 313 313 312 313 314 314 317 313 315 314 315 317 318 319 320 319 319 320 321 320 322 324 326 325 323 324 325 330
296 294 296 300 306 307 310 310 309 311 313 314 313 310 308 306 306 310 307 306 307 308 308 307 306 304 306 307 308 308 308 309 309 310 311 311 311 312 312 312 316 315 313 313 315 316 316 317 317 318 318 318 319 319 319 322 324 324 324 325 325 325 325
307 307 306 308 307 307 309 311 311 310 310 312 312 310 307 309 308 308 307 307 307 308 308 305 305 305 306 306 306 308 309 309 311 313 311 311 311 311 312 312 314 315 314 315 314 314 315 316 315 318 317 317 316 317 320 322 321 321 324 324 324 324 324
293 291 305 305 307 308 308 309 311 311 312 310 310 310 311 312 310 311 312 309 308 308 308 308 305 306 307 306 308 309 308 309 309 309 310 310 311 311 311 313 315 313 314 312 313 314 314 315 315 316 315 317 317 318 319 319 319 320 321 323 325 324 322
296 298 306 307 310 311 310 308 308 308 308 308 310 311 311 313 312 311 310 311 309 309 308 308 307 307 307 308 307 308 310 309 309 308 309 309 311 312 313 314 314 312 312 311 312 313 314 314 315 316 316 316 317 317 318 319 319 320 322 323 322 321 322
302 305 306 309 307 306 309 310 312 310 309 308 307 308 309 311 311 310 311 312 309 309 308 308 307 307 307 309 308 308 309 309 309 309 309 310 311 311 311 312 314 310 311 312 312 313 313 313 313 314 314 315 316 315 316 317 317 317 319 322 322 320 321
296 298 302 306 299 299 304 309 311 312 312 310 308 308 308 310 310 310 309 309 310 308 309 308 307 307 308 309 308 307 309 309 307 308 309 309 310 310 310 311 311 311 314 312 312 312 311 312 313 313 313 314 315 316 316 316 317 316 318 318 318 319 320
297 304 308 308 308 307 306 309 312 312 313 311 307 307 307 309 311 310 309 307 307 308 310 309 308 308 308 308 308 308 308 309 310 308 307 308 309 308 310 309 310 311 311 313 312 312 311 312 312 312 312 313 314 315 316 317 318 317 316 317 318 318 320
308 310 309 311 308 307 309 311 311 312 313 312 311 313 311 309 310 311 310 308 307 306 308 309 309 309 308 309 309 307 308 309 308 309 309 309 308 310 310 309 310 310 310 310 310 310 310 311 310 311 312 312 312 313 315 317 318 318 318 317 316 317 318
306 312 312 312 312 312 313 311 312 314 315 313 311 312 312 313 311 312 310 309 311 309 307 307 309 309 308 308 308 308 307 309 310 311 313 313 309 309 310 309 309 309 309 309 309 309 309 310 310 312 311 310 311 313 316 316 316 316 317 318 317 317 317
Wind_Speed
5 4 3 2 2 0 1 4 5 5 5 6 3 3 6 5 10 3 3 8 7 6 11 8 6 7 11 10 9 6 6 8 6 5 6 4 5 5 5 4 4 2 1 2 3 3 3 8 11 11 10 13 14 13 13 12 11 9 9 10 10 8 6
2 0 2 3 6 3 2 1 3 9 5 2 0 1 3 1 6 2 4 11 10 5 5 1 9 7 3 9 10 10 8 9 10 8 4 5 4 3 1 5 4 5 3 5 8 6 7 8 1 8 6 15 13 13 16 14 12 12 9 9 10 8 8
4 0 1 5 10 7 1 1 3 1 2 4 0 1 3 1 6 5 4 5 5 4 6 4 7 11 8 12 11 11 10 10 10 10 10 9 7 6 7 7 6 5 4 7 3 2 3 1 3 3 7 4 5 11 16 16 14 14 11 9 8 8 9
5 1 6 1 4 2 3 5 6 2 2 4 1 3 2 5 5 5 3 1 0 3 1 5 3 8 11 13 12 11 11 11 9 9 8 8 7 6 6 6 7 8 6 3 5 2 7 8 9 5 4 4 9 7 4 0 10 12 11 10 8 10 9
2 3 2 2 2 1 1 2 4 4 2 0 1 2 5 7 8 8 9 3 1 1 2 3 9 8 11 11 11 10 10 11 11 10 8 7 4 4 6 8 8 8 4 2 4 9 9 6 5 6 5 7 6 5 5 4 5 0 5 4 7 9 8
4 0 5 5 8 3 4 6 6 5 3 5 5 6 2 3 10 9 10 6 3 2 3 6 3 8 11 11 14 11 12 12 10 9 9 8 7 6 8 7 9 7 4 3 4 7 7 6 0 5 3 5 3 5 7 10 11 10 6 4 2 9 4
7 8 8 10 1 3 2 0 2 5 2 2 2 1 5 10 7 10 7 12 3 4 3 5 4 9 12 12 12 13 11 11 9 10 11 9 9 10 10 10 9 9 9 7 4 8 8 5 3 6 7 7 6 5 6 9 10 7 3 5 4 1 7
4 10 10 7 3 2 4 2 4 2 5 7 5 4 4 5 10 10 4 5 5 3 2 4 10 5 13 10 11 12 11 10 11 11 12 12 12 11 11 10 10 10 8 6 8 10 10 7 5 5 6 7 8 9 7 4 4 5 6 3 3 4 2
2 9 7 8 7 4 1 2 4 3 2 6 2 3 0 6 3 8 8 8 4 2 1 4 8 7 15 13 12 13 12 11 11 12 11 10 10 10 12 10 8 11 11 10 10 8 7 6 5 6 8 7 7 6 6 6 5 4 4 2 3 4 2
2 3 2 1 2 3 3 5 5 6 12 10 6 5 4 7 3 4 4 5 5 4 3 5 3 1 13 11 12 12 11 10 12 12 11 10 9 8 9 9 9 9 8 8 9 9 9 9 8 8 8 8 7 5 3 4 5 6 5 5 3 2 5
1 1 4 6 4 0 1 4 4 8 11 8 4 5 5 5 3 5 6 17 12 8 8 2 9 7 12 12 12 12 11 10 12 12 11 10 9 8 8 8 8 9 10 10 10 10 9 9 10 9 8 8 7 7 10 9 7 6 4 5 5 3 5
3 5 8 9 6 5 9 7 3 9 8 5 4 6 7 7 12 6 3 14 18 12 11 13 10 11 11 11 11 11 9 10 11 11 11 13 11 10 8 8 10 11 10 10 10 10 10 9 7 8 8 8 7 9 9 8 6 5 4 4 5 7 7
2 4 2 6 8 8 8 4 9 4 7 3 5 5 10 5 8 10 10 9 15 13 13 10 9 8 9 12 13 13 13 11 11 13 12 11 11 11 12 10 9 10 11 9 10 11 11 10 9 8 7 7 6 8 10 9 7 6 3 5 5 7 8
0 1 5 10 9 6 8 9 7 9 11 7 1 7 10 11 9 16 13 12 13 11 11 10 9 9 10 9 6 7 11 12 13 14 13 13 12 12 11 10 9 9 9 10 9 8 9 9 8 7 7 7 8 9 10 8 7 6 5 5 4 4 4
7 6 5 2 2 5 7 5 8 6 6 7 10 13 17 18 15 12 16 13 10 4 8 11 11 9 10 11 12 13 10 10 13 12 12 12 11 10 9 8 9 9 9 8 8 9 7 8 8 6 4 4 6 8 8 8 6 7 7 8 8 6 6
4 4 3 2 3 2 2 5 5 3 3 3 4 6 8 16 13 14 16 12 8 4 8 10 10 10 11 10 8 8 10 13 12 11 11 12 10 10 9 9 7 8 9 9 9 8 8 8 10 9 8 8 6 6 8 9 8 7 7 6 7 8 8
3 7 5 4 2 3 2 3 5 2 3 2 3 13 13 13 18 15 11 7 7 10 9 11 9 10 10 11 8 9 8 8 10 11 11 10 9 8 8 8 7 8 7 6 7 7 7 8 8 9 9 8 10 6 7 8 6 6 6 5 5 7 7
2 5 7 2 3 2 0 2 11 3 2 2 2 10 13 13 10 6 7 12 10 10 9 10 11 9 7 7 5 4 6 11 11 10 9 9 8 7 8 8 7 5 4 5 6 6 7 7 6 7 7 8 8 9 5 6 8 6 6 6 6 6 7
2 7 4 7 2 1 0 5 7 12 6 5 13 12 12 14 15 17 15 13 10 8 8 9 10 9 8 6 5 4 5 4 10 10 11 9 7 7 7 7 5 4 4 4 4 5 6 6 5 4 7 7 6 7 8 7 7 7 6 6 6 6 6
2 3 3 3 3 2 4 5 7 4 11 13 15 13 12 13 13 14 15 12 12 10 10 11 11 11 8 5 4 4 5 5 3 8 9 10 8 8 7 6 5 5 5 5 5 4 4 6 6 5 5 5 5 5 5 6 7 6 5 5 6 5 5
1 1 4 3 2 3 3 3 2 3 3 4 5 10 7 11 11 10 11 10 9 9 13 14 13 11 8 6 3 3 5 6 7 9 8 9 9 9 8 7 6 4 4 5 5 4 6 8 8 7 4 7 6 6 6 5 5 5 6 7 8 8 8
2 1 0 2 1 3 2 0 2 4 9 9 7 8 5 4 11 10 9 9 12 12 13 13 13 12 10 7 3 3 6 8 8 8 8 9 8 9 8 6 5 3 3 4 5 7 8 8 9 7 7 7 7 6 6 6 5 6 6 7 6 6 7
2 1 0 0 1 2 1 4 5 8 7 8 6 5 3 2 3 10 10 11 11 12 12 13 13 9 9 7 7 6 6 5 8 9 8 8 8 8 8 5 4 3 4 6 5 7 8 9 7 7 8 8 7 6 6 6 5 6 5 5 5 5 5
3 0 1 1 2 2 2 4 4 6 8 6 6 4 3 4 5 12 9 9 5 8 8 8 5 7 8 9 8 5 9 10 9 9 8 7 6 6 6 5 5 5 6 7 7 8 8 7 8 8 8 7 6 6 6 5 5 6 5 4 4 3 4
3 2 1 3 2 1 2 5 5 4 3 3 6 5 2 3 5 4 7 13 7 7 9 9 8 4 6 7 8 9 8 10 8 8 7 6 6 6 6 8 7 6 5 6 7 6 5 6 7 6 7 6 6 6 6 5 6 7 5 3 4 2 3
3 2 1 1 2 0 2 6 6 4 2 2 3 2 2 6 12 12 11 12 10 12 11 10 9 6 7 9 9 11 10 8 8 8 7 7 7 5 6 9 6 5 7 7 6 6 5 5 4 4 5 5 4 5 6 5 6 6 6 6 3 4 3
2 1 0 4 0 0 3 4 4 4 3 2 2 1 6 9 9 10 8 7 10 14 11 9 8 8 8 9 9 8 8 8 9 8 7 6 5 5 5 7 7 6 6 6 6 6 5 5 4 4 4 4 4 5 5 7 8 6 7 7 7 7 4
1 1 1 1 1 3 5 3 2 0 4 4 3 4 6 6 7 7 6 5 6 10 10 9 10 8 9 8 8 7 7 9 9 7 6 5 5 5 6 7 5 4 4 4 4 4 4 5 5 5 4 4 4 4 4 6 6 6 7 7 6 7 6
1 1 2 4 2 5 6 7 5 4 4 3 3 5 5 6 5 4 6 5 6 8 10 9 8 6 6 8 7 7 6 8 8 7 6 5 4 5 5 6 3 2 3 3 3 3 4 5 5 4 4 4 5 4 4 4 5 6 5 5 5 5 7
0 2 6 4 4 9 9 8 6 4 4 4 4 5 4 3 5 4 6 5 7 7 7 7 4 4 7 7 6 7 7 8 6 5 5 5 4 4 4 4 2 2 2 2 3 4 4 4 4 4 4 4 5 4 5 4 4 5 4 5 5 7 7
2 1 2 5 4 7 10 10 6 6 4 3 2 4 2 3 5 4 4 7 7 6 5 6 5 4 6 6 7 7 5 7 5 6 5 4 4 4 4 4 2 3 2 3 3 3 4 3 3 4 4 4 4 4 5 5 5 4 4 4 4 4 6
1 1 1 2 4 3 6 8 8 8 7 5 4 3 5 5 6 6 6 7 7 6 5 4 2 4 5 6 8 6 5 6 5 4 3 2 3 4 4 4 4 4 3 1 2 2 2 4 5 6 6 7 8 8 8 8 8 7 5 4 4 4 5
1 1 4 6 4 4 3 3 3 6 9 8 7 4 4 6 6 6 5 4 6 4 5 5 4 2 4 6 6 6 6 6 5 4 2 4 4 4 4 4 4 3 1 1 1 3 4 4 5 5 6 7 8 8 8 8 8 8 8 7 6 5 5
1 1 1 3 2 0 2 2 2 2 7 9 7 5 7 8 6 5 6 1 1 3 3 7 6 4 5 5 4 4 6 6 6 4 3 3 4 5 4 3 2 0 0 1 3 4 4 4 4 4 5 5 6 7 6 6 7 7 8 7 6 5 5
2 1 2 2 1 2 2 1 3 5 5 4 8 8 8 8 9 10 8 6 2 0 1 4 8 5 6 5 4 2 2 4 5 5 1 2 4 4 2 1 0 0 3 4 5 4 4 4 4 4 4 4 5 7 8 8 9 9 8 7 6 5 6
3 1 3 2 3 1 3 4 3 4 5 4 2 1 2 6 9 10 10 10 9 6 3 3 4 7 7 6 7 7 5 5 5 4 4 6 4 2 1 0 2 4 4 4 4 4 4 4 4 4 3 4 6 8 8 8 10 11 11 9 7 6 5
1 1 2 2 0 1 2 4 4 2 1 2 4 3 1 1 5 8 10 8 8 9 7 7 4 4 3 5 6 7 6 4 5 6 5 3 2 1 2 4 4 4 4 4 4 4 4 4 4 3 4 5 6 8 9 10 10 10 10 11 10 7 4
Wind_Direction
218 237 145 178 84 42 261 171 214 235 217 205 265 271 242 203 79 69 111 97 99 87 33 31 59 110 108 106 97 84 68 69 64 79 90 27 4 19 24 52 54 42 31 35 15 3 258 171 169 179 161 167 163 163 170 173 176 181 175 174 179 183 188
202 301 38 323 243 139 302 254 315 322 312 45 50 260 336 65 102 130 163 131 139 145 117 176 88 61 119 113 96 80 62 58 51 45 60 116 76 50 42 38 21 30 31 38 29 26 42 350 254 173 169 170 164 164 171 170 173 181 178 176 178 180 184
111 346 173 246 266 243 162 127 329 341 333 331 304 101 279 102 85 105 21 20 84 6 133 152 160 149 146 110 101 81 65 51 49 43 59 61 54 34 27 19 17 12 48 67 68 204 51 328 90 71 66 71 149 166 171 170 175 180 176 179 179 182 179
139 201 79 348 310 313 343 15 305 199 229 227 259 208 201 90 148 112 116 216 74 286 67 121 129 129 108 106 97 89 79 68 54 46 56 66 55 41 26 27 32 27 77 141 204 248 50 20 16 13 51 89 91 72 59 164 181 171 172 178 180 183 186
139 217 114 177 210 191 204 267 270 283 237 143 178 238 214 138 153 146 138 135 301 257 185 188 141 123 118 110 105 98 88 76 67 57 53 67 59 44 46 36 36 48 76 161 32 53 68 24 357 17 40 73 73 62 63 60 36 265 147 180 181 185 186
134 80 143 224 224 219 231 185 227 233 276 277 246 291 228 145 126 154 145 112 105 179 151 199 197 122 107 102 102 99 91 85 75 68 60 52 56 62 61 52 53 53 45 24 39 90 96 130 265 76 54 91 89 95 82 61 50 352 345 136 40 342 277
167 196 177 200 258 305 328 6 268 248 257 192 28 68 330 58 53 88 106 117 165 113 328 5 290 123 104 102 97 93 87 82 80 72 63 54 47 56 53 49 55 51 31 20 48 97 93 40 21 69 62 60 68 88 85 99 123 157 216 356 30 73 320
176 180 175 147 214 14 328 238 270 281 89 97 143 159 196 90 114 107 79 58 120 18 267 52 312 95 103 108 105 104 98 91 76 65 60 47 45 46 49 47 54 65 50 17 38 63 68 54 50 67 84 77 74 69 72 68 115 133 126 123 138 92 347
55 13 5 2 358 7 320 273 227 99 71 39 14 99 99 78 38 120 115 134 154 243 229 154 252 147 128 124 117 110 107 98 88 81 66 55 48 42 47 42 48 68 69 42 26 26 73 81 49 42 62 85 95 105 125 128 97 56 51 39 86 114 118
55 74 92 265 287 259 294 271 272 47 44 53 43 51 58 90 336 44 85 82 96 126 94 113 316 273 102 100 96 92 96 102 102 91 81 69 61 50 49 41 43 61 73 83 76 51 31 41 39 38 53 69 82 78 72 113 121 130 136 139 150 180 189
104 172 220 245 235 196 240 252 309 57 51 42 91 110 90 124 143 91 150 138 139 143 147 149 215 157 113 105 99 100 98 95 95 97 93 85 69 59 57 56 50 59 58 60 67 68 57 40 42 36 38 47 55 71 70 64 72 81 131 154 151 122 60
244 28 6 359 9 8 335 299 264 84 78 33 18 57 127 121 88 53 75 134 136 158 158 179 163 129 123 114 110 108 108 111 110 108 104 93 85 73 60 49 49 54 54 50 53 63 60 57 53 48 29 28 37 55 55 65 64 77 82 84 108 119 105
308 7 343 346 17 10 337 338 359 53 90 92 40 41 123 112 129 142 152 148 132 149 149 133 114 119 116 123 129 129 130 133 116 103 93 86 82 78 62 51 43 50 51 45 52 53 51 50 51 58 52 38 30 54 57 42 38 30 37 70 55 78 104
199 44 29 20 20 10 10 54 38 25 16 25 61 104 105 108 113 135 140 127 117 124 122 112 102 86 81 68 57 117 132 117 107 102 97 90 83 74 69 60 43 37 47 52 48 57 56 48 49 47 47 48 52 59 57 45 42 30 32 53 87 102 117
347 348 18 338 279 12 359 22 65 7 4 1 50 95 106 105 112 122 118 107 85 22 84 89 90 92 89 78 73 58 46 76 86 82 84 87 83 78 74 64 49 33 29 33 41 42 47 48 36 36 43 50 57 72 76 72 48 35 32 40 40 52 65
324 302 248 219 297 30 18 351 347 81 18 6 14 70 122 123 126 116 113 116 123 124 97 91 86 82 78 77 68 71 80 77 76 81 79 75 72 77 72 64 50 41 34 25 28 30 33 46 37 27 29 29 40 58 72 75 68 52 40 36 43 38 41
281 291 287 281 294 42 21 341 318 352 92 27 19 103 123 122 130 135 137 150 145 134 126 114 102 94 86 85 87 81 69 83 91 84 77 69 68 68 75 64 58 47 34 25 15 25 37 37 48 31 21 24 21 34 83 84 76 60 55 41 46 49 42
254 283 263 59 59 47 132 254 353 274 155 133 29 84 119 140 138 126 125 133 139 134 131 122 118 107 101 101 95 104 113 103 101 97 90 84 76 70 71 69 58 45 37 17 11 23 43 32 44 59 32 29 20 17 39 82 75 62 52 45 45 48 46
310 295 89 57 51 244 356 18 19 22 55 116 92 72 76 107 111 115 118 127 130 134 134 123 118 109 106 99 95 65 44 75 109 112 108 102 102 94 85 76 58 41 27 8 10 20 41 30 22 64 61 36 28 27 23 42 61 55 43 42 42 46 44
341 351 59 103 227 72 41 46 11 12 68 77 88 88 95 108 116 124 130 142 143 149 137 119 114 115 119 112 102 99 74 56 52 116 114 113 105 99 101 97 71 38 4 355 355 14 50 29 13 18 61 59 48 36 20 51 62 54 42 32 36 37 35
155 244 119 153 129 76 19 20 349 25 59 45 88 110 101 123 125 127 132 142 149 141 130 129 133 137 128 107 109 98 79 56 71 93 88 92 96 111 113 103 90 48 4 349 357 30 36 18 9 2 34 51 40 27 24 27 57 57 48 37 23 21 18
160 10 13 58 94 179 245 131 161 62 63 78 86 94 118 175 137 142 142 143 143 130 137 146 148 138 128 137 171 170 108 98 90 74 76 76 76 75 80 76 76 54 11 359 28 47 35 13 11 21 27 33 32 27 19 10 28 40 46 42 29 22 12
322 166 131 190 119 284 244 124 76 80 81 76 73 69 136 251 145 136 129 130 145 148 161 146 146 150 149 157 150 156 162 111 87 81 62 62 68 78 76 63 57 43 37 31 37 48 33 12 10 29 25 26 25 17 12 2 24 30 27 36 32 23 9
260 312 147 50 124 210 131 90 74 77 77 73 67 78 251 241 134 147 150 153 118 136 147 114 115 154 153 145 165 137 104 99 89 83 78 60 54 64 71 64 55 61 51 36 33 41 30 14 15 26 16 12 12 13 0 359 22 19 9 25 14 24 3
287 8 317 80 3 14 117 96 94 82 72 85 96 171 220 342 55 70 93 94 102 86 91 100 96 74 116 112 103 101 95 93 89 89 86 77 67 57 49 52 46 38 44 48 44 36 24 26 23 16 9 9 359 355 358 5 15 352 337 4 356 7 0
276 192 203 118 120 267 86 51 49 24 59 113 169 225 262 72 61 54 93 108 96 92 90 98 107 124 99 90 94 96 97 90 88 86 77 69 59 44 56 63 46 33 29 31 25 24 17 33 29 22 13 12 350 354 348 354 359 339 338 337 341 343 328
248 27 274 87 74 230 65 109 39 18 99 219 224 120 51 73 79 81 72 82 94 100 102 95 100 101 90 89 89 92 98 97 91 88 81 73 70 55 57 56 44 40 37 21 9 6 1 15 11 24 30 17 2 358 352 0 348 347 345 344 340 329 306
11 8 31 173 237 78 39 64 134 274 126 177 105 83 79 56 73 80 82 76 89 102 108 107 95 97 102 102 95 87 91 103 104 98 91 84 64 69 66 72 52 33 35 20 6 352 1 3 4 8 25 18 10 354 3 349 335 336 333 331 330 327 315
102 163 200 241 279 90 87 92 100 98 88 85 85 83 97 99 82 83 85 84 75 86 96 100 111 119 127 126 127 122 115 103 103 104 104 102 98 93 87 83 65 53 54 12 353 7 5 2 3 357 5 12 356 357 344 326 327 325 316 322 335 335 331
70 95 124 140 130 112 112 111 122 107 63 49 88 110 107 111 128 138 125 113 97 92 95 98 89 108 115 113 118 119 111 108 105 107 104 100 99 97 101 92 86 95 51 22 33 13 353 355 355 345 358 6 349 340 323 331 327 319 336 340 336 326 322
81 201 237 177 166 127 134 133 131 112 110 78 43 76 38 129 135 90 112 141 127 120 112 113 144 137 111 113 103 98 103 100 103 102 113 122 129 129 117 124 117 76 47 54 15 13 339 340 336 347 342 343 336 331 332 321 315 320 317 307 306 312 315
149 180 181 51 71 94 116 145 146 145 135 114 68 79 70 73 93 97 86 97 107 111 109 108 90 114 117 109 111 118 116 115 111 113 115 136 123 110 116 109 82 76 69 53 351 346 340 3 12 6 2 359 355 351 343 340 337 331 321 320 318 316 312
317 290 43 5 91 75 51 51 87 136 151 145 138 123 107 95 94 96 81 82 118 129 140 145 139 140 132 126 129 126 134 136 144 141 175 149 129 118 104 89 89 95 80 329 344 25 38 29 19 11 6 356 349 345 336 334 333 331 324 318 315 307 299
287 80 354 333 92 297 23 14 1 70 148 148 142 133 127 132 117 117 115 123 80 150 153 148 140 152 122 119 124 124 138 139 138 154 140 111 108 102 93 90 107 98 310 66 52 47 40 28 22 14 355 340 329 319 317 313 313 311 313 313 311 304 303
160 212 48 37 159 154 218 258 13 34 27 99 155 158 156 154 152 150 150 152 157 112 2 134 149 142 134 126 120 117 116 145 133 124 145 137 111 94 88 86 316 71 59 56 50 40 33 21 21 359 339 335 336 340 336 330 326 313 296 290 289 290 294
76 87 134 66 86 60 348 15 17 15 19 33 92 159 197 178 169 169 161 163 162 167 163 87 116 134 136 148 161 181 169 144 152 145 118 111 113 119 134 160 88 70 62 58 54 37 21 16 359 339 348 357 357 337 331 341 345 338 326 303 281 279 277
137 307 23 61 121 352 332 350 340 3 34 26 350 349 24 236 206 170 174 171 159 160 154 155 141 138 164 160 167 162 162 142 107 92 98 100 101 147 97 63 66 65 62 53 51 42 23 355 340 350 12 3 350 336 346 347 341 334 327 323 309 286 284